Rawlins, WY

10:48 AM MDT on April 28, 2017 (GMT -0600)
Rawlins Municipal

Weather History for KRWL - December, 2011

Change the Weather History Date:

Saturday, December 3, 2011

  Actual Average Record
Temperature  
Mean Temperature 8 °F 23 °F  
Max Temperature 19 °F 32 °F 55 °F (1998)
Min Temperature -3 °F 13 °F -12 °F (2009)
Degree Days  
Heating Degree Days 57 42  
Month to date heating degree days 156 126  
Since 1 July heating degree days 2026 2232  
Cooling Degree Days 0 0  
Month to date cooling degree days 0 0  
Year to date cooling degree days 242 186  
Moisture  
Dew Point 9 °F    
Average Humidity 80    
Maximum Humidity 92    
Minimum Humidity 67    
Precipitation  
Precipitation T in 0.01 in 0.41 in (2013)
Month to date precipitation 0.11 0.04  
Year to date precipitation 9.54 8.86  
Sea Level Pressure  
Sea Level Pressure 30.09 in    
Wind  
Wind Speed 10 mph (NE)    
Max Wind Speed 24 mph    
Max Gust Speed 30 mph    
Visibility 7 miles    
Events Snow    
T = Trace of Precipitation, MM = Missing Value Source: NWS Daily Summary

Daily Weather History Graph

Daily Weather History Graph

Search for Another Location

Airport or City:

Trip Planner

Search our weather history database for the weather conditions in past years. The results will help you decide how hot, cold, wet, or windy it might be!

Date:

Astronomy

Dec. 03, 2011 Rise Set
Actual Time 7:18 AM MST 4:38 PM MST
Civil Twilight 6:47 AM MST 5:09 PM MST
Nautical Twilight 6:12 AM MST 5:44 PM MST
Astronomical Twilight 5:39 AM MST 6:17 PM MST
Moon 12:48 PM MST (12/3) 12:44 AM MST (12/3)
Length of Visible Light 10h 22m
Length of Day
9h 19m
Waxing Gibbous, 63% of the Moon is Illuminated
Dec 3
Waxing Gibbous
Dec 10
Full
Dec 17
Last Quarter
Dec 24
New
Dec 31
First Quarter

Hourly Weather History & Observations

Time (MST) Temp. Windchill Dew Point Humidity Pressure Visibility Wind Dir Wind Speed Gust Speed Precip Events Conditions
12:33 AM 17.6 °F 0.5 °F 14.0 °F 86% 29.93 in 1.2 mi NNE 21.9 mph 27.6 mph 0.00 in Snow Light Snow
12:50 AM 17.6 °F 1.7 °F 14.0 °F 86% 29.93 in 1.2 mi NNE 18.4 mph 27.6 mph 0.00 in Snow Light Snow
12:53 AM 18.0 °F 1.7 °F 14.0 °F 84% 30.03 in 1.5 mi NNE 19.6 mph 27.6 mph 0.00 in Snow Light Snow
1:10 AM 17.6 °F 2.7 °F 14.0 °F 86% 29.94 in 2.0 mi NNE 16.1 mph - 0.00 in Snow Light Snow
1:32 AM 17.6 °F 2.7 °F 12.2 °F 79% 29.94 in 4.0 mi NE 16.1 mph - 0.00 in Snow Light Snow
1:53 AM 17.1 °F 2.0 °F 12.0 °F 81% 30.03 in 8.0 mi NE 16.1 mph - 0.00 in Snow Light Snow
2:53 AM 16.0 °F 0.1 °F 10.9 °F 81% 30.07 in 9.0 mi NE 17.3 mph 27.6 mph 0.00 in   Overcast
3:53 AM 16.0 °F -0.9 °F 10.0 °F 77% 30.09 in 10.0 mi NE 19.6 mph 26.5 mph 0.00 in   Overcast
4:07 AM 15.8 °F -1.1 °F 8.6 °F 73% 29.99 in 10.0 mi NE 19.6 mph 28.8 mph 0.00 in   Overcast
4:28 AM 15.8 °F -0.6 °F 8.6 °F 73% 29.98 in 6.0 mi NE 18.4 mph 27.6 mph 0.00 in Snow Light Snow
4:53 AM 15.1 °F -0.6 °F 10.0 °F 80% 30.12 in 4.0 mi NE 16.1 mph - 0.00 in Snow Light Snow
5:53 AM 15.1 °F -0.1 °F 9.0 °F 77% 30.14 in 4.0 mi ENE 15.0 mph - 0.00 in Snow Light Snow
6:12 AM 15.8 °F 2.7 °F 10.4 °F 79% 30.01 in 2.5 mi ENE 11.5 mph - 0.00 in Snow Light Snow
6:19 AM 15.8 °F 3.4 °F 10.4 °F 79% 30.02 in 2.0 mi ENE 10.4 mph - 0.00 in Snow Light Snow
6:53 AM 12.9 °F 1.6 °F 10.0 °F 88% 30.17 in 3.0 mi ENE 8.1 mph - 0.00 in Snow Light Snow
7:02 AM 12.2 °F 1.7 °F 8.6 °F 85% 30.03 in 4.0 mi NE 6.9 mph - 0.00 in Snow Light Snow
7:53 AM 14.0 °F 3.9 °F 9.0 °F 80% 30.20 in 10.0 mi NE 6.9 mph - 0.00 in   Overcast
8:22 AM 15.8 °F 5.1 °F 10.4 °F 79% 30.04 in 2.0 mi NE 8.1 mph - 0.00 in Snow Light Snow
8:35 AM 15.8 °F 4.2 °F 10.4 °F 79% 30.04 in 3.0 mi ENE 9.2 mph - 0.00 in Snow Light Snow
8:53 AM 15.1 °F 3.3 °F 9.0 °F 77% 30.19 in 4.0 mi ENE 9.2 mph - 0.00 in Snow Light Snow
9:53 AM 16.0 °F 4.4 °F 10.0 °F 77% 30.21 in 10.0 mi ENE 9.2 mph - 0.00 in   Overcast
10:43 AM 17.6 °F 9.3 °F 12.2 °F 79% 30.05 in 3.0 mi East 5.8 mph - 0.00 in Snow Light Snow
10:53 AM 17.1 °F 8.7 °F 12.0 °F 81% 30.19 in 3.0 mi East 5.8 mph - 0.00 in Snow Light Snow
11:14 AM 17.6 °F 8.2 °F 12.2 °F 79% 30.04 in 8.0 mi East 6.9 mph - 0.00 in   Overcast
11:53 AM 18.0 °F 11.1 °F 10.9 °F 74% 30.18 in 10.0 mi ENE 4.6 mph - 0.00 in   Overcast
12:53 PM 19.0 °F 13.9 °F 10.9 °F 71% 30.16 in 10.0 mi ENE 3.5 mph - N/A   Scattered Clouds
1:53 PM 19.0 °F 13.9 °F 10.9 °F 71% 30.15 in 10.0 mi East 3.5 mph - N/A   Partly Cloudy
2:53 PM 19.0 °F - 10.0 °F 68% 30.13 in 10.0 mi Calm Calm - N/A   Partly Cloudy
3:53 PM 16.0 °F - 9.0 °F 74% 30.14 in 10.0 mi Calm Calm - N/A   Clear
4:53 PM 1.9 °F -13.8 °F -2.0 °F 83% 30.22 in 10.0 mi NNW 10.4 mph - N/A   Clear
5:53 PM -0.9 °F -8.9 °F -5.1 °F 83% 30.24 in 10.0 mi WSW 3.5 mph - N/A   Clear
6:53 PM 6.1 °F -0.9 °F 1.0 °F 80% 30.21 in 10.0 mi WSW 3.5 mph - N/A   Clear
7:53 PM 3.0 °F -6.4 °F -2.0 °F 80% 30.22 in 10.0 mi SW 4.6 mph - N/A   Clear
8:53 PM 5.0 °F -5.6 °F -0.0 °F 80% 30.21 in 10.0 mi SE 5.8 mph - N/A   Clear
9:16 PM 8.6 °F - 3.2 °F 79% 29.97 in 10.0 mi Calm Calm - N/A   Mostly Cloudy
9:37 PM 12.2 °F -0.2 °F 5.0 °F 73% 29.97 in 10.0 mi SW 9.2 mph - N/A   Overcast
9:53 PM 14.0 °F -0.8 °F 7.0 °F 74% 30.16 in 10.0 mi WSW 13.8 mph - N/A   Overcast
10:53 PM 14.0 °F -3.0 °F 6.1 °F 71% 30.15 in 10.0 mi WSW 18.4 mph - N/A   Overcast
11:53 PM 12.9 °F -2.2 °F 5.0 °F 71% 30.15 in 10.0 mi WSW 13.8 mph - N/A   Overcast